EW7157 Weather Reports


time (UTC)temp
C
wind
direction
speed
KPH
gust
KPH
rain 1hr
cm
rain 24hr
cm
rain mn
cm
humidity
%
barometer
mb
20260902184425 21 360 0.0 0.0 0.00 0.10 0.05 91 1041.6
20260902183524 21 360 0.0 0.0 0.00 0.10 0.05 91 1041.6
20260902182541 21 360 0.0 0.0 0.00 0.10 0.05 90 1041.8
20260902181523 21 360 0.0 0.0 0.00 0.10 0.05 90 1042.0
20260902180524 21 360 0.0 0.0 0.00 0.10 0.05 89 1041.8
20260902175523 21 360 0.0 0.0 0.00 0.10 0.05 89 1041.6
20260902173525 22 360 0.0 0.0 0.00 0.10 0.05 88 1041.7
20260902172524 22 360 0.0 0.0 0.00 0.10 0.05 88 1042.2
20260902172423 22 360 0.0 0.0 0.00 0.10 0.05 88 1042.2
20260902170425 22 360 0.0 0.0 0.00 0.10 0.05 86 1042.6
20260902165424 22 360 0.0 0.0 0.00 0.10 0.05 86 1042.8
20260902164423 22 360 0.0 0.0 0.03 0.10 0.05 87 1042.8
20260902163426 22 360 0.0 0.0 0.03 0.10 0.05 87 1042.6
20260902162427 22 360 0.0 0.0 0.03 0.10 0.05 86 1042.7
20260902161524 22 360 0.0 0.0 0.03 0.10 0.05 87 1042.4
20260902161425 22 360 0.0 0.0 0.03 0.10 0.05 87 1042.3
20260902160424 22 360 0.0 0.0 0.03 0.10 0.05 87 1042.3
20260902155424 21 360 0.0 0.0 0.05 0.10 0.03 87 1042.1
20260902154425 21 360 0.0 1.6 0.03 0.08 0.03 87 1042.3
20260902151524 21 360 0.0 0.0 0.03 0.08 0.03 88 1042.3
20260902150524 21 360 0.0 0.0 0.03 0.08 0.03 88 1042.3
20260902145524 21 360 0.0 0.0 0.00 0.05 0.00 89 1042.5
20260902144524 21 360 0.0 0.0 0.00 0.05 0.00 89 1042.6
20260902143623 21 360 0.0 0.0 0.00 0.05 0.00 89 1042.6
20260902142625 21 236 0.0 0.0 0.00 0.05 0.00 88 1042.3
20260902141624 21 225 0.0 0.0 0.00 0.05 0.00 89 1042.1
20260902140640 21 360 0.0 1.6 0.00 0.05 0.00 89 1042.3
20260902140523 21 360 0.0 0.0 0.00 0.05 0.00 90 1042.3
20260902135424 21 360 0.0 1.6 0.00 0.05 0.00 91 1042.2
20260902134523 21 360 0.0 0.0 0.00 0.05 0.00 91 1042.3
20260902133524 20 360 0.0 0.0 0.00 0.05 0.00 91 1042.2
20260902132524 20 315 0.0 0.0 0.00 0.05 0.00 92 1042.1
20260902130624 20 360 0.0 0.0 0.00 0.05 0.00 93 1041.8
20260902125623 20 315 0.0 0.0 0.00 0.05 0.00 93 1041.6
20260902124624 20 292 0.0 0.0 0.00 0.05 0.00 93 1041.8
20260902122625 20 270 0.0 0.0 0.00 0.05 0.00 94 1041.6
20260902121626 20 270 0.0 0.0 0.00 0.05 0.00 93 1041.5
20260902121524 20 270 0.0 0.0 0.00 0.05 0.00 94 1041.6
20260902120525 20 90 0.0 0.0 0.00 0.05 0.00 94 1041.5
20260902114523 20 360 0.0 0.0 0.00 0.05 0.00 95 1041.6
20260902113523 20 225 0.0 0.0 0.00 0.05 0.00 95 1041.5
20260902112524 20 225 0.0 0.0 0.00 0.05 0.00 95 1041.4
20260902110524 20 225 0.0 0.0 0.00 0.05 0.00 95 1041.5
20260902105524 20 360 0.0 0.0 0.00 0.05 0.00 95 1041.5
20260902104523 20 360 0.0 0.0 0.00 0.05 0.00 95 1041.3
20260902103525 20 360 0.0 0.0 0.00 0.05 0.00 95 1041.3
20260902103423 20 360 0.0 0.0 0.00 0.05 0.00 95 1041.1
20260902101425 20 360 0.0 0.0 0.00 0.08 0.00 94 1041.1
20260902100423 20 360 0.0 0.0 0.00 0.08 0.00 94 1041.2
20260902095424 20 360 0.0 0.0 0.00 0.08 0.00 94 1041.3
20260902095323 20 360 0.0 0.0 0.00 0.08 0.00 94 1041.3
20260902095224 20 360 0.0 0.0 0.00 0.08 0.00 94 1041.2
20260902092323 20 360 0.0 0.0 0.00 0.08 0.00 94 1040.9
20260902091324 20 360 0.0 0.0 0.00 0.08 0.00 94 1040.8
20260902090325 20 360 0.0 0.0 0.00 0.08 0.00 93 1040.6
20260902085324 20 360 0.0 0.0 0.00 0.08 0.00 93 1040.6
20260902083325 20 360 0.0 0.0 0.00 0.08 0.00 94 1040.4
20260902082327 20 360 0.0 0.0 0.00 0.08 0.00 93 1040.3
20260902081323 20 360 0.0 0.0 0.00 0.08 0.00 93 1040.2
20260902081225 20 360 0.0 0.0 0.00 0.08 0.00 94 1040.2
20260902081123 20 360 0.0 0.0 0.00 0.08 0.00 93 1040.2
20260902080125 20 360 0.0 0.0 0.00 0.08 0.00 94 1040.1
20260902075223 20 360 0.0 0.0 0.00 0.08 0.00 92 1040.0
20260902075124 20 360 0.0 0.0 0.00 0.08 0.00 92 1040.1
20260902073224 21 22 0.0 0.0 0.00 0.08 0.00 92 1039.9
20260902072226 21 22 0.0 0.0 0.00 0.08 0.00 93 1039.8
20260902072124 21 22 0.0 0.0 0.00 0.08 0.00 93 1039.8
20260902071126 21 360 0.0 3.2 0.00 0.08 0.00 93 1039.8
20260902070223 21 360 0.0 4.8 0.00 0.08 0.00 92 1039.9
20260902065223 21 360 0.0 1.6 0.00 0.08 0.00 93 1039.8
20260902064223 21 285 0.0 0.0 0.00 0.08 0.00 94 1039.7
20260902063222 21 45 0.0 1.6 0.00 0.08 0.00 93 1039.5
20260902062225 21 45 0.0 0.0 0.00 0.08 0.00 93 1039.5
20260902061223 21 90 0.0 0.0 0.00 0.08 0.00 94 1039.3
20260902060223 21 90 0.0 0.0 0.00 0.08 0.00 93 1039.4
20260902055123 21 90 0.0 0.0 0.00 0.08 0.00 94 1039.4
20260902054125 21 90 0.0 0.0 0.00 0.08 0.00 94 1039.5
20260902053223 21 90 0.0 0.0 0.00 0.08 0.00 94 1039.4
20260902052225 22 90 0.0 0.0 0.00 0.08 0.00 93 1039.5
20260902051323 22 90 0.0 0.0 0.00 0.08 0.00 93 1039.6
20260902050325 22 90 0.0 0.0 0.00 0.08 0.00 94 1039.7
20260902045323 22 90 0.0 0.0 0.00 0.08 0.00 93 1039.8
20260902045224 22 90 0.0 0.0 0.00 0.08 0.00 92 1039.8
20260902044224 22 90 0.0 0.0 0.00 0.08 0.00 93 1039.8
20260902043225 22 90 0.0 0.0 0.00 0.08 0.00 92 1039.9
20260902043125 22 90 0.0 0.0 0.00 0.08 0.00 93 1039.7
20260902042125 22 90 0.0 0.0 0.00 0.08 0.00 94 1039.6
20260902035129 22 90 0.0 0.0 0.00 0.08 0.08 93 1038.9
20260902033129 22 90 0.0 0.0 0.00 0.08 0.08 93 1038.8
20260902032228 22 90 0.0 0.0 0.00 0.08 0.08 92 1038.8
20260902031229 22 90 0.0 0.0 0.00 0.08 0.08 92 1038.7
20260902030229 22 90 0.0 0.0 0.00 0.08 0.08 92 1038.5
20260902030129 22 90 0.0 0.0 0.00 0.08 0.08 93 1038.5
20260902025145 22 90 0.0 0.0 0.00 0.08 0.08 92 1038.1
20260902024030 22 90 0.0 0.0 0.00 0.08 0.08 93 1038.1
20260902023029 22 90 0.0 0.0 0.00 0.08 0.08 91 1038.3
20260902022029 22 90 0.0 0.0 0.00 0.08 0.08 92 1038.3
20260902021029 22 90 0.0 0.0 0.00 0.08 0.08 92 1038.1
20260902015030 22 90 0.0 0.0 0.03 0.08 0.08 91 1038.8
20260902014029 22 90 0.0 0.0 0.03 0.08 0.08 91 1038.0
20260902013028 22 90 0.0 0.0 0.03 0.08 0.08 90 1037.5
20260902012929 22 90 0.0 0.0 0.05 0.08 0.08 89 1037.5
20260902011931 22 90 0.0 0.0 0.05 0.08 0.08 89 1036.9
20260902010931 23 90 0.0 0.0 0.05 0.08 0.08 86 1036.1
20260902010829 23 90 0.0 0.0 0.05 0.08 0.08 86 1035.9
20260902005829 23 90 0.0 0.0 0.03 0.05 0.05 85 1036.6
20260902004830 23 90 0.0 0.0 0.03 0.05 0.05 83 1036.1
20260902002928 25 135 1.6 4.8 0.00 0.03 0.03 78 1036.2
20260902001928 26 188 4.8 17.7 0.00 0.03 0.03 84 1036.3
20260902000928 26 157 0.0 0.0 0.00 0.03 0.03 83 1035.6
20260901235929 26 157 0.0 0.0 0.00 0.03 0.03 83 1035.1
20260901234028 26 157 0.0 0.0 0.00 0.03 0.03 81 1035.6
20260901232928 26 157 0.0 0.0 0.00 0.03 0.03 81 1035.1
20260901230929 27 157 0.0 0.0 0.00 0.03 0.03 79 1035.5
20260901225928 27 157 0.0 0.0 0.00 0.03 0.03 77 1035.2
20260901224930 27 157 0.0 0.0 0.00 0.03 0.03 76 1035.1
20260901223830 28 157 0.0 0.0 0.00 0.03 0.03 76 1035.2
20260901222828 28 157 0.0 0.0 0.00 0.03 0.03 75 1035.2
20260901222729 28 157 0.0 0.0 0.00 0.03 0.03 74 1035.1
20260901221729 28 157 0.0 0.0 0.00 0.03 0.03 74 1035.3
20260901215730 29 157 0.0 0.0 0.00 0.03 0.03 72 1035.2
20260901213827 30 157 0.0 0.0 0.00 0.03 0.03 71 1035.7
20260901213729 30 157 0.0 0.0 0.00 0.03 0.03 70 1035.6
20260901212731 30 157 0.0 1.6 0.00 0.03 0.03 69 1035.7
20260901212630 30 157 0.0 0.0 0.00 0.03 0.03 69 1035.7
20260901210628 30 180 0.0 0.0 0.00 0.03 0.03 67 1035.4
20260901210529 30 180 0.0 0.0 0.00 0.03 0.03 68 1035.4
20260901205547 31 180 0.0 0.0 0.00 0.03 0.03 66 1035.6
20260901204529 31 90 0.0 0.0 0.00 0.03 0.03 63 1035.6
20260901203528 32 155 0.0 0.0 0.00 0.03 0.03 63 1035.6
20260901202628 32 180 0.0 0.0 0.00 0.03 0.03 62 1035.6
20260901201727 33 180 0.0 0.0 0.00 0.03 0.03 60 1035.6
20260901201627 33 180 0.0 0.0 0.00 0.03 0.03 60 1035.7
20260901200629 33 222 0.0 0.0 0.00 0.03 0.03 60 1035.8
20260901195630 33 135 0.0 0.0 0.00 0.03 0.03 59 1035.7
20260901195530 33 135 0.0 0.0 0.00 0.03 0.03 59 1035.7
20260901194530 33 180 0.0 0.0 0.00 0.03 0.03 59 1035.8
20260901193628 33 157 0.0 0.0 0.00 0.03 0.03 58 1036.0
20260901192631 33 180 0.0 0.0 0.00 0.03 0.03 59 1036.0
20260901190728 33 45 0.0 0.0 0.00 0.03 0.03 60 1036.1
20260901185729 32 45 0.0 0.0 0.00 0.03 0.03 60 1036.2
20260901185627 32 45 0.0 0.0 0.00 0.03 0.03 61 1036.2